Change the Weather History Date:

Monday, May 27, 2013

  Actual Average Record
Temperature  
Mean Temperature 52 °F -  
Max Temperature 61 °F 55 °F 68 °F (1990)
Min Temperature 45 °F 43 °F 34 °F (1976)
Degree Days  
Heating Degree Days 12    
Growing Degree Days 2 (Base 50)    
Moisture  
Dew Point 48 °F    
Average Humidity 83    
Maximum Humidity 97    
Minimum Humidity 69    
Precipitation  
Precipitation 0.00 in - - ()
Sea Level Pressure  
Sea Level Pressure 29.77 in    
Wind  
Wind Speed 2 mph (WSW)    
Max Wind Speed 9 mph    
Max Gust Speed -    
Visibility 10 miles    
Events      
Averages and records for this station are not official NWS values.
T = Trace of Precipitation, MM = Missing Value Source: NWS Daily Summary

Daily Weather History Graph

Daily Weather History Graph

Search for Another Location

Airport or City:

Trip Planner

Search our weather history database for the weather conditions in past years. The results will help you decide how hot, cold, wet, or windy it might be!

Date:

Astronomy

May. 27, 2013 Rise Set
Actual Time 4:21 AM AKDT 9:36 PM AKDT
Civil Twilight 3:22 AM AKDT 10:36 PM AKDT
Nautical Twilight 1:31 AM AKDT 12:26 AM AKDT
Astronomical Twilight Sun does not rise Sun does not rise
Moon No Moon Rise 7:19 AM AKDT
Length of Visible Light 19h 14m
Length of Day
17h 14m
Waning Gibbous, 90% of the Moon is Illuminated
May 27
Waning Gibbous
May 31
Last Quarter
Jun 8
New
Jun 16
First Quarter
Jun 23
Full

Hourly Weather History & Observations

Time (AKDT) Temp. Dew Point Humidity Pressure Visibility Wind Dir Wind Speed Gust Speed Precip Events Conditions
12:53 AM 48.0 °F 46.0 °F 93% 29.91 in 10.0 mi Calm Calm - N/A   Clear
1:53 AM 46.0 °F 44.1 °F 93% 29.90 in 10.0 mi Calm Calm - N/A   Clear
2:53 AM 48.0 °F 46.0 °F 93% 29.89 in 10.0 mi Calm Calm - N/A   Clear
3:53 AM 45.0 °F 44.1 °F 97% 29.88 in 10.0 mi Calm Calm - N/A   Clear
4:53 AM 45.0 °F 43.0 °F 93% 29.88 in 10.0 mi Calm Calm - N/A   Clear
5:53 AM 46.9 °F 46.0 °F 97% 29.86 in 10.0 mi NW 3.5 mph - N/A   Clear
6:53 AM 48.0 °F 46.0 °F 93% 29.84 in 10.0 mi NW 3.5 mph - N/A   Clear
7:53 AM 51.1 °F 46.0 °F 83% 29.83 in 10.0 mi Calm Calm - N/A   Clear
8:53 AM 51.1 °F 46.9 °F 86% 29.81 in 10.0 mi Calm Calm - N/A   Clear
9:53 AM 54.0 °F 48.9 °F 83% 29.80 in 10.0 mi SW 3.5 mph - N/A   Clear
10:53 AM 54.0 °F 48.9 °F 83% 29.79 in 10.0 mi SW 5.8 mph - N/A   Clear
11:53 AM 55.9 °F 48.9 °F 77% 29.78 in 10.0 mi SW 5.8 mph - N/A   Clear
12:53 PM 57.0 °F 50.0 °F 77% 29.77 in 10.0 mi SSW 4.6 mph - N/A   Clear
1:53 PM 57.9 °F 50.0 °F 75% 29.75 in 10.0 mi SW 4.6 mph - N/A   Clear
2:53 PM 57.9 °F 48.9 °F 72% 29.74 in 10.0 mi SW 8.1 mph - N/A   Clear
3:53 PM 57.9 °F 48.9 °F 72% 29.72 in 10.0 mi SSW 8.1 mph - N/A   Scattered Clouds
4:53 PM 60.1 °F 50.0 °F 69% 29.70 in 10.0 mi SSW 9.2 mph - N/A   Scattered Clouds
5:53 PM 57.9 °F 51.1 °F 78% 29.70 in 10.0 mi SSW 6.9 mph - N/A   Clear
6:53 PM 59.0 °F 50.0 °F 72% 29.68 in 10.0 mi WSW 4.6 mph - N/A   Clear
7:53 PM 57.9 °F 50.0 °F 75% 29.67 in 10.0 mi NW 3.5 mph - N/A   Clear
8:53 PM 55.0 °F 50.0 °F 83% 29.67 in 10.0 mi NW 5.8 mph - N/A   Clear
9:53 PM 53.1 °F 50.0 °F 89% 29.66 in 10.0 mi WNW 3.5 mph - N/A   Scattered Clouds
10:53 PM 55.0 °F 50.0 °F 83% 29.65 in 10.0 mi WNW 3.5 mph - N/A   Scattered Clouds
11:53 PM 54.0 °F 48.9 °F 83% 29.63 in 10.0 mi Calm Calm - 0.00 in   Clear